{"data":{"norad_id":64430,"intl_designator":"2025-129U","name":"STARLINK-34441","alt_names":[],"object_type":"PAYLOAD","status":"ACTIVE","operator":null,"country":"US","launch_date":"2025-06-17","launch_site_code":"AFWTR","launch_vehicle":null,"mission":null,"orbit_class":"UNKNOWN","rcs_meters":null,"size_class":null,"mass_kg":null,"dimensions":null,"purposes":["comms"],"wikipedia_slug":null,"has_3d_model":false,"image_url":null,"decayed_at":null,"tle_current":{"epoch":"2026-09-20T12:12:35.303616Z","epoch_age_seconds":133504,"freshness":"FRESH","line1":"1 64430U 25129U   26263.50874194  .00006719  00000+0  23794-3 0  9993","line2":"2 64430  70.0008 301.0820 0003318 272.8902  87.1894 15.29584349 70524","mean_motion":15.29584349,"eccentricity":0.0003318,"inclination_deg":70.0008,"raan_deg":301.082,"arg_perigee_deg":272.8902,"mean_anomaly_deg":87.1894,"bstar":0.00023794,"rev_number":7052,"period_min":94.143222695854,"perigee_km":474.77935652625,"apogee_km":479.32846121338,"semimajor_km":6855.1909088698,"source":"CELESTRAK","updated_at":"2026-09-21T09:00:35.349652Z"}}}